Weather History for KPOU - May, 2012

Change the Weather History Date:

Friday, May 4, 2012

  Actual Average Record
Temperature  
Mean Temperature 67 °F 55 °F  
Max Temperature 80 °F 68 °F 92 °F (2001)
Min Temperature 53 °F 43 °F 28 °F (1985)
Degree Days  
Heating Degree Days 0 10  
Month to date heating degree days 29 42  
Since 1 July heating degree days 4681 5981  
Cooling Degree Days 2 0  
Month to date cooling degree days 2 0  
Year to date cooling degree days 9 5  
Growing Degree Days 16 (Base 50)    
Moisture  
Dew Point 56 °F    
Average Humidity 76    
Maximum Humidity 93    
Minimum Humidity 58    
Precipitation  
Precipitation 0.39 in 0.13 in 1.10 in (1984)
Month to date precipitation 0.89 0.49  
Year to date precipitation 7.75 13.58  
Sea Level Pressure  
Sea Level Pressure 29.96 in    
Wind  
Wind Speed 3 mph (SSE)    
Max Wind Speed 14 mph    
Max Gust Speed 77 mph    
Visibility 8 miles    
Events Rain , Thunderstorm    
T = Trace of Precipitation, MM = Missing Value Source: NWS Daily Summary

Daily Weather History Graph

Daily Weather History Graph

Search for Another Location

Airport or City:

Trip Planner

Search our weather history database for the weather conditions in past years. The results will help you decide how hot, cold, wet, or windy it might be!

Date:

Astronomy

May. 04, 2012 Rise Set
Actual Time 5:47 AM EDT 7:57 PM EDT
Civil Twilight 5:17 AM EDT 8:27 PM EDT
Nautical Twilight 4:39 AM EDT 9:05 PM EDT
Astronomical Twilight 3:58 AM EDT 9:47 PM EDT
Moon 6:31 PM EDT (5/4) 4:28 AM EDT (5/4)
Length of Visible Light 15h 10m
Length of Day
14h 09m
Waxing Gibbous, 97% of the Moon is Illuminated
May 4
Waxing Gibbous
May 5
Full
May 12
Last Quarter
May 20
New
May 28
First Quarter

Hourly Weather History & Observations

Time (EDT) Temp. Dew Point Humidity Pressure Visibility Wind Dir Wind Speed Gust Speed Precip Events Conditions
12:00 AM 53.6 °F 51.8 °F 94% 30.07 in 5.0 mi SE 5.8 mph - N/A Thunderstorm Overcast
12:15 AM 53.6 °F 51.8 °F 94% 30.05 in 8.0 mi SE 6.9 mph - 0.00 in Rain Light Rain
12:45 AM 53.6 °F 51.8 °F 94% 30.04 in 10.0 mi South 5.8 mph - 0.00 in Rain Light Rain
12:53 AM 54.0 °F 52.0 °F 93% 30.03 in 10.0 mi South 5.8 mph - 0.00 in   Overcast
1:00 AM 53.6 °F 51.8 °F 94% 30.04 in 10.0 mi South 5.8 mph - N/A   Overcast
1:15 AM 55.4 °F 51.8 °F 88% 30.05 in 10.0 mi South 4.6 mph - N/A   Overcast
1:25 AM 55.4 °F 51.8 °F 88% 30.06 in 10.0 mi South 3.5 mph - N/A   Overcast
1:53 AM 55.0 °F 52.0 °F 89% 30.05 in 10.0 mi South 3.5 mph - N/A   Overcast
2:18 AM 53.6 °F 51.8 °F 94% 30.04 in 10.0 mi ESE 5.8 mph - 0.01 in Rain Light Rain
2:44 AM 53.6 °F 51.8 °F 94% 30.00 in 10.0 mi SE 8.1 mph - 0.01 in   Overcast
2:53 AM 54.0 °F 51.1 °F 90% 29.99 in 10.0 mi Variable 3.5 mph - 0.01 in Rain Light Rain
3:09 AM 53.6 °F 51.8 °F 94% 30.00 in 10.0 mi SE 3.5 mph - 0.00 in   Overcast
3:53 AM 54.0 °F 52.0 °F 93% 30.05 in 10.0 mi North 8.1 mph - 0.00 in Thunderstorm Overcast
4:19 AM 53.6 °F 51.8 °F 94% 30.05 in 7.0 mi Calm Calm - 0.09 in Rain , Thunderstorm Light Rain
4:27 AM 53.6 °F 51.8 °F 94% 30.04 in 4.0 mi SE 4.6 mph - 0.11 in Rain Rain
4:34 AM 53.6 °F 51.8 °F 94% 30.04 in 3.0 mi SSE 5.8 mph - 0.13 in Rain Rain
4:40 AM 53.6 °F 51.8 °F 94% 30.02 in 2.5 mi ESE 6.9 mph - 0.18 in Rain , Thunderstorm Rain
4:53 AM 54.0 °F 52.0 °F 93% 30.01 in 3.0 mi SSE 5.8 mph - 0.24 in Rain , Thunderstorm Rain
5:02 AM 53.6 °F 51.8 °F 94% 30.01 in 3.0 mi SSE 4.6 mph - 0.03 in Rain Rain
5:53 AM 54.0 °F 52.0 °F 93% 29.98 in 10.0 mi WSW 4.6 mph - 0.14 in   Scattered Clouds
6:06 AM 53.6 °F 53.6 °F 100% 29.98 in 10.0 mi SE 3.5 mph - N/A   Scattered Clouds
6:20 AM 55.4 °F 51.8 °F 88% 29.97 in 10.0 mi SSE 4.6 mph - N/A   Mostly Cloudy
6:33 AM 53.6 °F 53.6 °F 100% 29.98 in 10.0 mi Calm Calm - N/A   Scattered Clouds
6:53 AM 55.0 °F 53.1 °F 93% 29.98 in 10.0 mi Calm Calm - N/A   Partly Cloudy
7:53 AM 57.0 °F 54.0 °F 89% 29.96 in 10.0 mi Variable 3.5 mph - N/A   Scattered Clouds
8:14 AM 57.2 °F 53.6 °F 88% 29.97 in 10.0 mi South 3.5 mph - N/A   Mostly Cloudy
8:39 AM 57.2 °F 55.4 °F 94% 29.98 in 4.0 mi Variable 3.5 mph - N/A   Overcast
8:53 AM 57.9 °F 55.0 °F 90% 29.97 in 4.0 mi South 4.6 mph - N/A   Mostly Cloudy
9:53 AM 60.1 °F 55.0 °F 83% 29.94 in 5.0 mi Variable 5.8 mph - N/A   Overcast
10:00 AM 60.8 °F 55.4 °F 82% 29.94 in 10.0 mi Variable 5.8 mph - N/A   Overcast
10:53 AM 61.0 °F 55.9 °F 83% 29.94 in 10.0 mi WSW 5.8 mph - N/A   Overcast
11:53 AM 64.9 °F 57.9 °F 78% 29.92 in 10.0 mi Variable 6.9 mph - N/A   Mostly Cloudy
12:15 PM 64.4 °F 57.2 °F 77% 29.93 in 10.0 mi SW 9.2 mph - N/A   Mostly Cloudy
12:53 PM 66.0 °F 57.9 °F 75% 29.91 in 10.0 mi Variable 3.5 mph - N/A   Mostly Cloudy
1:53 PM 70.0 °F 60.1 °F 71% 29.89 in 10.0 mi Variable 3.5 mph - N/A   Clear
2:53 PM 75.0 °F 62.1 °F 64% 29.86 in 10.0 mi WSW 6.9 mph - N/A   Clear
3:53 PM 75.9 °F 61.0 °F 60% 29.84 in 10.0 mi WSW 5.8 mph - N/A   Mostly Cloudy
4:53 PM 78.1 °F 63.0 °F 60% 29.83 in 10.0 mi Variable 4.6 mph - N/A   Clear
5:53 PM 79.0 °F 62.1 °F 56% 29.82 in 10.0 mi Calm Calm - N/A   Scattered Clouds
6:53 PM 79.0 °F 62.1 °F 56% 29.82 in 10.0 mi Calm Calm - N/A   Clear
7:53 PM 73.0 °F 64.0 °F 73% 29.84 in 10.0 mi Calm Calm - N/A   Scattered Clouds
8:53 PM 71.1 °F 64.0 °F 78% 29.86 in 10.0 mi Calm Calm - N/A   Overcast
9:53 PM 66.9 °F 63.0 °F 87% 29.88 in 10.0 mi Calm Calm - N/A   Mostly Cloudy
10:50 PM 62.6 °F 60.8 °F 94% 29.88 in 1.8 mi Calm Calm - N/A   Partly Cloudy
10:51 PM 63.0 °F 61.0 °F 93% 29.87 in 1.8 mi SE 3.5 mph - N/A   Partly Cloudy
10:55 PM 62.6 °F 62.6 °F 100% 29.88 in 3.0 mi Calm Calm - N/A   Partly Cloudy
11:53 PM 62.1 °F 60.1 °F 93% 29.87 in 7.0 mi Calm Calm - N/A   Clear